Location: Carnetin
(48.9010°N, 2.7059°E)
Time: 05:13:58
(UTC+00:00)

USA 229 - Pass Details

Date: 31 May 2022
Orbit: 938 x 1274 km, 63.4° (Epoch: 24 May)

Event Time Altitude Azimuth Distance (km) Brightness Sun altitude
Rises 00:58:33 0° 311° (NW) 4,022 7.0 -17.4°
Reaches altitude 10° 01:01:57 10° 296° (WNW) 3,112 6.2 -17.3°
Maximum altitude 01:07:11 21° 251° (WSW) 2,452 5.2 -17.0°
Enters shadow 01:09:21 19° 230° (SW) 2,607 5.2 -16.9°
